Flag for Cuba Weather past 2 weeks in Santiago de Cuba, Cuba

Now
88 °F

Passing clouds.


Feels Like: 93 °F
Forecast: 75 / 89 °F
Wind: 2 mph from North

Location: Santiago De Cuba - Oriente

Current Time: Sep 1, 2014 at 10:58:13 AM

Latest Report: Sep 1, 2014 at 9:54 AM


Visibility: N/A

Pressure: 30.04 "Hg

Humidity: 55%

Dew point: 70 °F

Location of Santiago de CubaLocation

Historic Weather in Santiago de Cuba — Graph

°F

Santiago de Cuba temperature yesterday

Maximum temperature yesterday: 88 °F (at 1:53 PM)
Minimum temperature yesterday: 73 °F (at 6:51 AM)
Average temperature yesterday: 81 °F

Past Weeks' High & Low Weather Summary

 TemperatureHumidityPressure
High95 °F (Aug 22, 11:50 AM)94% (Aug 24, 9:50 PM)30.07 "Hg (Aug 24, 9:50 PM)
Low73 °F (Aug 31, 6:51 AM)41% (Aug 22, 11:50 AM)29.71 "Hg (Aug 24, 4:50 PM)
Average82 °F72%29.94 "Hg
* Reported Aug 17 8:51 AM — Sep 1 8:50 AM, Santiago de Cuba, Weather by CustomWeather, © 2014

Note: Actual official high and low records may vary slightly from our data, if they occured in-between our weather recording intervals... More about our weather records

Advertising

Santiago de Cuba weather history for previous 24 hours

 ConditionsComfort  
Time TempWeatherWind HumidityBarometerVisibility
8:50 AM
Sep 1
82 °FPassing clouds.6 mph66%30.04 "Hg6 mi
7:51 AM79 °FPassing clouds.6 mph74%30.01 "Hg6 mi
6:50 AM75 °FPassing clouds.6 mph83%30.01 "Hg6 mi
5:50 AM75 °FPassing clouds.7 mph83%29.98 "Hg6 mi
4:51 AM75 °FPassing clouds.7 mph83%29.95 "Hg6 mi
3:51 AM75 °FPassing clouds.7 mph83%29.95 "Hg6 mi
2:52 AM77 °FPassing clouds.6 mph79%29.98 "Hg6 mi
1:52 AM77 °FPassing clouds.6 mph83%29.98 "Hg6 mi
12:50 AM79 °FPassing clouds.5 mph79%30.01 "Hg6 mi
11:52 PM
Aug 31
79 °FPassing clouds.7 mph79%30.01 "Hg6 mi
10:50 PM79 °FPassing clouds.6 mph84%30.01 "Hg6 mi
9:50 PM81 °FPassing clouds.5 mph79%30.01 "Hg6 mi
8:50 PM82 °FPassing clouds.5 mph70%30.01 "Hg6 mi
7:50 PM84 °FScattered clouds.10 mph70%29.98 "Hg6 mi
6:50 PM84 °FScattered clouds.9 mph70%29.98 "HgN/A
5:50 PM86 °FScattered clouds.10 mph66%29.98 "Hg6 mi
4:51 PM88 °FScattered clouds.9 mph66%29.98 "Hg6 mi
3:52 PM88 °FScattered clouds.13 mph66%30.01 "Hg6 mi
2:52 PM88 °FScattered clouds.7 mph62%30.01 "Hg6 mi
1:53 PM88 °FScattered clouds.9 mph62%30.04 "Hg6 mi
12:52 PM86 °FScattered clouds.6 mph59%30.04 "Hg6 mi
11:51 AM86 °FScattered clouds.7 mph59%30.07 "Hg6 mi
10:52 AM86 °FScattered clouds.3 mph59%30.07 "Hg6 mi
Weather by CustomWeather, © 2014

See weather overviewHow to use our weather pages